Tracking 31027 objects as of 19-Jul-2025
HD Live streaming from Space Station
objects crossing your sky now

ATLAS 2AS CENTAUR R/B

Track ATLAS 2AS CENTAUR R/B now!
10-day predictions


NORAD ID: 26072
Int'l Code: 2000-007B
Perigee: 261.2 km
Apogee: 6,689.7 km
Inclination: 18.1 °
Period: 162.1 minutes
Semi major axis: 9846 km
RCS: 16.571 m2 (large)
Launch date: February 3, 2000
Source: United States (US)
Launch site: AIR FORCE EASTERN TEST RANGE (AFETR)

Note: This is a ROCKET BODY
Your satellite tracking list
KL-BETA B
Track 1 satellite(s)




NASA's NSSDC Master Catalog

Two Line Element Set (TLE):
1 26072U 00007B   25198.98249420  .00046698  00000-0  14566-2 0  9994
2 26072  18.0755  39.9839 3264360  56.6905 330.4930  8.88552770326138
Source of the keplerian elements: AFSPC